TimeEDT,TemperatureF,Dew PointF,Humidity,Sea Level PressureIn,VisibilityMPH,Wind Direction,Wind SpeedMPH,Gust SpeedMPH,PrecipitationIn,Events,Conditions,WindDirDegrees,DateUTC
12:52 AM,37.9,28.0,68,30.02,10.0,Calm,Calm,-,N/A,,Overcast,0,2013-04-09 04:52:00
1:52 AM,48.9,30.9,50,29.96,10.0,Variable,4.6,24.2,0.00,Rain,Light Rain,0,2013-04-09 05:52:00
2:52 AM,46.9,34.0,61,29.97,10.0,South,11.5,18.4,0.01,Rain,Light Rain,170,2013-04-09 06:52:00
3:52 AM,46.0,37.0,71,29.92,10.0,South,10.4,18.4,0.04,Rain,Light Rain,180,2013-04-09 07:52:00
4:52 AM,46.0,37.9,73,29.88,10.0,South,6.9,20.7,0.04,Rain,Light Rain,190,2013-04-09 08:52:00
5:52 AM,46.9,37.9,71,29.86,10.0,SW,6.9,-,0.00,,Overcast,220,2013-04-09 09:52:00
6:52 AM,46.0,39.0,76,29.86,10.0,South,6.9,-,0.03,Rain,Light Rain,180,2013-04-09 10:52:00
7:52 AM,48.0,39.0,71,29.86,10.0,South,9.2,-,0.00,,Overcast,190,2013-04-09 11:52:00
8:52 AM,45.0,39.9,82,29.86,10.0,WNW,5.8,-,N/A,,Overcast,290,2013-04-09 12:52:00
9:32 AM,42.8,39.2,87,29.85,6.0,Calm,Calm,-,0.02,Rain,Light Rain,0,2013-04-09 13:32:00
9:52 AM,43.0,41.0,93,29.88,6.0,Calm,Calm,-,0.04,Rain,Light Rain,0,2013-04-09 13:52:00
10:14 AM,42.8,41.0,93,29.86,7.0,Calm,Calm,-,0.01,Rain,Light Rain,0,2013-04-09 14:14:00
10:41 AM,42.8,41.0,93,29.87,7.0,Calm,Calm,-,0.01,,Overcast,0,2013-04-09 14:41:00
10:52 AM,44.1,41.0,89,29.91,7.0,Calm,Calm,-,0.02,,Overcast,0,2013-04-09 14:52:00
10:59 AM,44.6,42.8,93,29.88,3.0,Variable,3.5,-,0.00,Rain,Light Rain,0,2013-04-09 14:59:00
11:11 AM,44.6,42.8,93,29.88,5.0,Calm,Calm,-,0.00,,Overcast,0,2013-04-09 15:11:00
11:52 AM,46.0,43.0,89,29.93,6.0,Calm,Calm,-,0.00,,Overcast,0,2013-04-09 15:52:00
12:03 PM,46.4,42.8,87,29.90,9.0,West,4.6,-,N/A,,Overcast,280,2013-04-09 16:03:00
12:49 PM,44.6,39.2,81,29.94,10.0,West,10.4,20.7,N/A,,Overcast,270,2013-04-09 16:49:00
12:52 PM,45.0,39.9,82,29.96,10.0,West,9.2,20.7,N/A,,Overcast,270,2013-04-09 16:52:00
1:48 PM,46.4,39.2,76,29.96,10.0,WNW,13.8,-,N/A,,Overcast,300,2013-04-09 17:48:00
1:52 PM,46.0,39.9,79,29.98,10.0,WNW,12.7,-,N/A,,Overcast,300,2013-04-09 17:52:00
2:52 PM,46.0,37.9,73,29.99,10.0,WNW,5.8,-,N/A,,Overcast,300,2013-04-09 18:52:00
3:52 PM,46.0,37.0,71,30.00,10.0,West,4.6,-,N/A,,Overcast,280,2013-04-09 19:52:00
4:52 PM,45.0,35.1,68,29.99,10.0,NW,9.2,-,N/A,,Overcast,320,2013-04-09 20:52:00
5:52 PM,44.1,36.0,73,30.03,10.0,Variable,3.5,-,N/A,,Overcast,0,2013-04-09 21:52:00
6:52 PM,43.0,35.1,74,30.04,10.0,SW,3.5,-,N/A,,Overcast,230,2013-04-09 22:52:00
7:32 PM,41.0,35.6,81,30.01,10.0,Calm,Calm,-,N/A,,Scattered Clouds,0,2013-04-09 23:32:00
7:52 PM,39.0,34.0,82,30.05,10.0,Calm,Calm,-,N/A,,Mostly Cloudy,0,2013-04-09 23:52:00
8:52 PM,37.9,35.1,89,30.06,10.0,Calm,Calm,-,N/A,,Overcast,0,2013-04-10 00:52:00
9:52 PM,37.9,34.0,86,30.05,10.0,Calm,Calm,-,N/A,,Mostly Cloudy,0,2013-04-10 01:52:00
10:14 PM,37.4,33.8,87,30.01,10.0,Calm,Calm,-,N/A,,Mostly Cloudy,0,2013-04-10 02:14:00
10:52 PM,37.0,34.0,89,30.03,10.0,Calm,Calm,-,N/A,,Overcast,0,2013-04-10 02:52:00
11:52 PM,37.0,35.1,93,29.99,10.0,Calm,Calm,-,0.00,Rain,Light Rain,0,2013-04-10 03:52:00